[[{"header":{"parameterUnit":"m.s-1","parameterCategory":1,"la1":30.2991,"la2":30.254,"lo1":-89.0895,"lo2":-89.0444,"dy":0.0017,"dx":0.0017,"nx":28,"ny":28,"refTime":"2025-06-03T03:00:00:Z","depth":0,"parameterNumber":2,"parameterNumberName":"U-component_of_WINDS"},"data":[0,0,0,0,0,0,0,0,0,0,0,0,0,0,0,0,0,0,0,0,0,0,0,0,0,0,0,0,0,0,0,0,0,0,0,0,0,0,0,0,0,0,0,0,0,0,0,0,0,0,0,0,0,0,0,0,0,0,-6.2016,-6.2017,0,-6.2139,-6.214,-6.2142,-6.2123,-6.2121,-6.2119,-6.2117,-6.2242,-6.2247,-6.2252,0,0,0,0,0,0,0,0,0,0,0,0,0,-6.1761,-6.1766,-6.2015,-6.2017,-6.2019,-6.2139,-6.214,-6.2142,-6.2124,-6.2121,-6.2118,-6.2116,-6.224,-6.2246,-6.2252,0,0,0,0,0,0,0,0,0,0,0,0,0,-6.1877,-6.1768,-6.2015,-6.2024,-6.2026,-6.2138,-6.214,-6.2142,-6.2124,-6.2121,-6.2118,-6.2115,-6.2238,-6.2245,-6.2253,-6.2364,0,0,-6.2277,-6.2281,0,0,0,0,0,0,0,0,-6.187,-6.1886,-6.2021,-6.2024,-6.2026,-6.2112,-6.2096,-6.2217,-6.2125,-6.2087,-6.2117,-6.2113,-6.2201,-6.2212,-6.2242,-6.237,-6.2375,-6.2278,-6.2283,-6.2286,-6.2288,0,0,0,0,0,0,0,-6.1862,-6.1881,-6.2064,-6.2023,-6.2026,-6.2021,-6.2034,-6.2119,-6.216,-6.209,-6.2089,-6.2104,-6.2202,-6.2234,-6.2244,-6.2377,-6.2278,-6.2285,-6.229,-6.2293,-6.2599,-6.2603,0,0,0,0,0,0,-6.1852,-6.1874,-6.206,-6.2068,-6.1939,-6.2028,-6.2042,-6.2088,-6.2159,-6.2167,-6.2106,-6.2102,-6.2222,-6.2235,-6.2249,-6.238,-6.2286,-6.2293,-6.2298,-6.2596,-6.26,-6.2604,0,0,0,0,0,0,-6.1847,-6.1869,-6.2055,-6.1971,-6.1994,-6.2035,-6.2087,-6.2092,-6.2124,-6.2171,-6.2178,-6.2132,-6.222,-6.2238,-6.2335,-6.2385,-6.2297,-6.2304,-6.2592,-6.2597,-6.2602,-6.2647,0,0,0,0,0,0,-6.184,-6.1867,-6.1911,-6.1972,-6.1999,-6.2141,-6.209,-6.2097,-6.2138,-6.2134,-6.2197,-6.2205,-6.2219,-6.2323,-6.2343,-6.2394,-6.231,-6.2588,-6.2594,-6.26,-6.2641,-6.2653,-6.2663,0,0,0,0,0,-6.1831,-6.1919,-6.1913,-6.1935,-6.2054,-6.2144,-6.2159,-6.2174,-6.2142,-6.2185,-6.2215,-6.2203,-6.2377,-6.2333,-6.2355,-6.2409,-6.2585,-6.2593,-6.26,-6.2636,-6.265,-6.2663,0,0,0,0,0,0,-6.1862,-6.1927,-6.1921,-6.2032,-6.2082,-6.214,-6.2195,-6.2189,-6.2249,-6.2243,-6.2259,-6.2274,-6.2371,-6.2401,-6.2351,-6.2519,-6.2476,-6.2488,-6.2496,-6.251,-6.2521,-6.251,-6.2317,0,0,0,0,0,-6.1881,-6.195,-6.2003,-6.2095,-6.2121,-6.2154,-6.2193,-6.2201,-6.2253,-6.2274,-6.2312,-6.2362,-6.2428,-6.2471,-6.2535,-6.2646,-6.2658,-6.2694,-6.2705,-6.2714,-6.2723,-6.2781,-6.2796,-6.2629,-6.2629,-6.2629,0,0,-6.1923,-6.1967,-6.2009,-6.2102,-6.2142,-6.2211,-6.2172,-6.2247,-6.2297,-6.2286,-6.2379,-6.2408,-6.2466,-6.257,-6.2617,-6.2597,-6.2772,-6.2723,-6.273,-6.2735,-6.279,-6.2806,-6.282,-6.2634,-6.2634,-6.2633,0,0,-6.2032,-6.2074,-6.2154,-6.2195,-6.2256,-6.2277,-6.2296,-6.2355,-6.2374,-6.2468,-6.246,-6.252,-6.2634,-6.2675,-6.271,-6.2834,-6.2823,-6.2854,-6.291,-6.2967,-6.298,-6.2991,-6.3032,-6.3047,-6.2864,-6.2865,-6.2865,0,-6.2076,-6.218,-6.2196,-6.2271,-6.2311,-6.2304,-6.2384,-6.2423,-6.2501,-6.2528,-6.2505,-6.2646,-6.2685,-6.2797,-6.2827,-6.2857,-6.2877,-6.2846,-6.2977,-6.2989,-6.3,-6.3039,-6.3054,-6.2868,-6.2867,-6.2867,-6.2867,0,-6.2228,-6.23,-6.2357,-6.2433,-6.248,-6.2557,-6.2583,-6.2629,-6.2632,-6.2655,-6.275,-6.2796,-6.2868,-6.2895,-6.29,-6.3007,-6.2992,-6.2973,-6.2929,-6.3018,-6.3055,-6.3071,-6.2872,-6.2871,-6.287,-6.2869,0,0,-6.236,-6.2442,-6.2463,-6.2495,-6.2562,-6.2617,-6.2694,-6.2763,-6.2801,-6.2855,-6.2918,-6.3014,-6.2995,-6.3036,-6.3045,-6.3095,-6.3185,-6.3069,-6.307,-6.3086,-6.3303,-6.3314,-6.3332,-6.318,-6.3183,-6.3186,-6.3297,0,-6.2473,-6.2607,-6.2624,-6.2743,-6.2808,-6.2802,-6.2868,-6.2915,-6.2939,-6.2997,-6.3023,-6.3089,-6.3062,-6.3086,-6.3135,-6.3164,-6.3229,-6.3157,-6.3236,-6.3238,-6.3218,-6.3352,-6.3365,-6.3468,-6.3312,-6.3314,-6.3316,0,-6.2623,-6.268,-6.2806,-6.2861,-6.2889,-6.2948,-6.3012,-6.3068,-6.3121,-6.3134,-6.3179,-6.3181,-6.3258,-6.3214,-6.3318,-6.3269,-6.3303,-6.3322,-6.3326,-6.3331,-6.328,-6.3357,-6.3501,-6.3515,-6.334,-6.3338,-6.3336,0,-6.2701,-6.2811,-6.2899,-6.2928,-6.2996,-6.3037,-6.3067,-6.3117,-6.3157,-6.3213,-6.3238,-6.3303,-6.3338,-6.3387,-6.3406,-6.3373,-6.3509,-6.3467,-6.352,-6.3519,-6.3546,-6.3544,-6.3694,-6.3574,-6.3573,-6.3573,-6.3573,0,-6.2824,-6.29,-6.2935,-6.2989,-6.3074,-6.3092,-6.3174,-6.3202,-6.3246,-6.3305,-6.3305,-6.3359,-6.3383,-6.344,-6.3456,-6.3538,-6.3555,-6.3566,-6.3569,-6.3564,-6.3562,-6.3584,-6.3576,-6.3577,-6.3576,-6.3576,-6.3575,0,-6.2925,-6.2952,-6.3048,-6.3104,-6.3119,-6.3179,-6.3226,-6.3277,-6.3301,-6.3374,-6.3392,-6.3428,-6.3496,-6.3521,-6.3604,-6.3614,-6.3708,-6.3707,-6.369,-6.369,-6.374,-6.3734,-6.3907,-6.3929,-6.3798,-6.3799,-6.38,0,-6.3,-6.3059,-6.312,-6.3159,-6.319,-6.3254,-6.3294,-6.3314,-6.3356,-6.342,-6.3463,-6.3531,-6.3585,-6.3694,-6.3726,-6.3789,-6.3787,-6.3843,-6.3796,-6.3789,-6.3784,-6.3778,-6.3783,-6.3851,-6.3852,-6.3854,-6.3854,0,-6.3129,-6.3139,-6.3198,-6.3262,-6.331,-6.3361,-6.341,-6.3442,-6.3469,-6.3516,-6.3585,-6.3628,-6.3712,-6.3778,-6.3842,-6.3871,-6.3866,-6.3869,-6.3884,-6.3879,-6.3865,-6.387,-6.371,-6.3865,-6.3864,-6.3863,-6.3862,-6.3862,-6.3217,-6.3268,-6.3318,-6.3383,-6.3422,-6.3468,-6.3518,-6.3547,-6.3605,-6.3675,-6.3683,-6.3757,-6.3806,-6.3892,-6.3924,-6.3981,-6.3966,-6.3988,-6.3993,-6.3998,-6.3999,-6.3859,-6.3993,-6.3993,-6.3993,-6.3993,-6.3993,0,-6.3343,-6.3375,-6.3435,-6.3503,-6.3554,-6.3547,-6.36,-6.3642,-6.3707,-6.3754,-6.3808,-6.3886,-6.395,-6.3988,-6.4051,-6.4089,-6.4088,-6.4105,-6.41,-6.4107,-6.4012,-6.3991,-6.4104,-6.4104,-6.4104,-6.4104,-6.4104,-6.4104,-6.3414,-6.3498,-6.3514,-6.3616,-6.3648,-6.372,-6.375,-6.3792,-6.3829,-6.3916,-6.3969,-6.3993,-6.4036,-6.4102,-6.416,-6.4169,-6.4191,-6.4208,-6.4216,-6.4126,-6.4114,-6.4103,-6.4083,-6.4214,-6.4214,-6.4306,-6.4307,-6.4307]},{"header":{"parameterUnit":"m.s-1","parameterCategory":1,"la1":30.2991,"la2":30.254,"lo1":-89.0895,"lo2":-89.0444,"dy":0.0017,"dx":0.0017,"nx":28,"ny":28,"refTime":"2025-06-03T03:00:00:Z","depth":0,"parameterNumber":3,"parameterNumberName":"V-component_of_WINDS"},"data":[0,0,0,0,0,0,0,0,0,0,0,0,0,0,0,0,0,0,0,0,0,0,0,0,0,0,0,0,0,0,0,0,0,0,0,0,0,0,0,0,0,0,0,0,0,0,0,0,0,0,0,0,0,0,0,0,0,0,1.9593,1.9594,0,1.9677,1.9678,1.9679,1.97,1.9699,1.9699,1.9698,1.9784,1.9787,1.9789,0,0,0,0,0,0,0,0,0,0,0,0,0,1.9454,1.9456,1.9593,1.9594,1.9595,1.9677,1.9678,1.9679,1.97,1.9699,1.9698,1.9698,1.9783,1.9786,1.979,0,0,0,0,0,0,0,0,0,0,0,0,0,1.9524,1.9457,1.9593,1.9616,1.9618,1.9676,1.9678,1.9679,1.97,1.9699,1.9698,1.9698,1.9782,1.9786,1.979,1.9832,0,0,1.9803,1.9805,0,0,0,0,0,0,0,0,1.952,1.9529,1.9611,1.9614,1.9617,1.9677,1.966,1.9731,1.97,1.9669,1.9698,1.9697,1.9749,1.9756,1.9773,1.9836,1.984,1.9803,1.9806,1.9808,1.9809,0,0,0,0,0,0,0,1.9515,1.9525,1.9626,1.9612,1.9616,1.9622,1.9631,1.9674,1.9713,1.9672,1.9673,1.9683,1.9751,1.9769,1.9776,1.9841,1.9803,1.9807,1.981,1.9811,1.9944,1.9945,0,0,0,0,0,0,1.9506,1.9521,1.9624,1.9629,1.9566,1.9625,1.9635,1.9659,1.9712,1.9719,1.9683,1.9684,1.9763,1.9771,1.9779,1.9832,1.9808,1.9812,1.9814,1.9943,1.9945,1.9946,0,0,0,0,0,0,1.9503,1.9515,1.962,1.9576,1.9589,1.9629,1.9655,1.9661,1.9679,1.9721,1.9728,1.9695,1.9762,1.9773,1.9819,1.9835,1.9813,1.9817,1.9942,1.9944,1.9945,1.9939,0,0,0,0,0,0,1.9499,1.9514,1.9529,1.9576,1.9592,1.9659,1.9656,1.9663,1.9686,1.9687,1.9734,1.9741,1.9762,1.9813,1.9823,1.9841,1.9821,1.9941,1.9943,1.9945,1.9938,1.994,1.9942,0,0,0,0,0,1.9494,1.9524,1.953,1.9542,1.9612,1.9659,1.9669,1.9693,1.9688,1.9704,1.9731,1.9739,1.9832,1.9817,1.9829,1.9848,1.994,1.9942,1.9944,1.9937,1.9939,1.9942,0,0,0,0,0,0,1.9478,1.953,1.9537,1.9583,1.9617,1.9663,1.9684,1.9694,1.973,1.9729,1.9758,1.9768,1.9813,1.9835,1.9818,1.9893,1.9886,1.9891,1.9876,1.9879,1.9881,1.9874,1.9824,0,0,0,0,0,1.948,1.9513,1.9558,1.9594,1.961,1.9644,1.9666,1.9682,1.9718,1.9732,1.9762,1.9797,1.9834,1.9858,1.9894,1.9941,1.9952,1.9961,1.9963,1.9964,1.9968,1.9996,2.0,1.9953,1.9953,1.9953,0,0,1.9484,1.9516,1.9536,1.9591,1.9619,1.9654,1.9656,1.9693,1.9719,1.9737,1.9783,1.9807,1.9848,1.9895,1.9917,1.9915,1.9983,1.9967,1.9968,1.9971,1.9999,2.0003,2.0007,1.9955,1.9955,1.9954,0,0,1.9509,1.9537,1.9571,1.9599,1.9641,1.9664,1.9672,1.9718,1.9734,1.9781,1.9795,1.9828,1.9891,1.992,1.9943,1.9982,1.9991,1.9993,2.0003,2.003,2.0034,2.0037,2.0052,2.0057,1.9996,1.9996,1.9996,0,1.9508,1.9561,1.9587,1.9623,1.9648,1.9667,1.9702,1.9728,1.978,1.9797,1.9794,1.9875,1.9904,1.9958,1.9968,1.9986,1.9997,1.9987,2.0031,2.0035,2.0039,2.0053,2.0058,1.9996,1.9996,1.9996,1.9996,0,1.9559,1.9596,1.9618,1.9669,1.9696,1.9731,1.9763,1.9788,1.9802,1.9826,1.9874,1.9909,1.9954,1.9968,1.9982,2.0026,2.0023,2.0025,2.0019,2.0043,2.0056,2.0062,1.9996,1.9996,1.9996,1.9996,0,0,1.9575,1.964,1.9648,1.9672,1.9721,1.975,1.9788,1.9831,1.9852,1.9889,1.9921,1.9975,1.9978,2.0004,2.0022,2.0045,2.0075,2.0045,2.0046,2.005,2.0127,2.0125,2.013,2.0082,2.0083,2.0084,2.0123,0,1.9606,1.9673,1.9698,1.9753,1.9788,1.9808,1.984,1.9875,1.9898,1.9932,1.9958,1.9996,1.9997,2.0013,2.0038,2.0066,2.0091,2.0064,2.0113,2.0114,2.0102,2.0137,2.0135,2.017,2.0129,2.013,2.0131,0,1.9651,1.9688,1.9746,1.9793,1.9809,1.9838,1.9881,1.9913,1.9953,1.9968,1.9999,2.0015,2.0056,2.0048,2.0106,2.0087,2.0109,2.0126,2.0128,2.0133,2.0123,2.0144,2.0182,2.0187,2.0139,2.0139,2.0138,0,1.9657,1.9722,1.9765,1.9785,1.984,1.986,1.9885,1.9924,1.9949,1.9987,2.0004,2.0047,2.007,2.0103,2.0131,2.0122,2.0186,2.018,2.0201,2.02,2.0213,2.0211,2.0255,2.0227,2.0227,2.0227,2.0227,0,1.9689,1.9724,1.9769,1.9796,1.9836,1.9866,1.9905,1.9931,1.9966,1.9999,2.0019,2.0049,2.0085,2.012,2.0143,2.0187,2.0198,2.0212,2.0217,2.021,2.0208,2.0224,2.0223,2.0228,2.0228,2.0228,2.0227,0,1.9702,1.9734,1.9783,1.9832,1.9845,1.9873,1.9915,1.9942,1.9968,2.0009,2.0021,2.0061,2.0104,2.0135,2.019,2.0206,2.0254,2.0259,2.024,2.0243,2.0262,2.026,2.0317,2.0326,2.0292,2.0292,2.0292,0,1.9721,1.9748,1.9801,1.9824,1.9848,1.9886,1.9912,1.9943,1.997,2.0019,2.0041,2.0085,2.0122,2.019,2.0224,2.0267,2.0274,2.0292,2.0281,2.0273,2.0275,2.0273,2.0276,2.0293,2.0293,2.0293,2.0293,0,1.975,1.9765,1.9802,1.9845,1.9876,1.9911,1.9947,1.9965,2.0003,2.0032,2.0077,2.0106,2.0163,2.0207,2.0254,2.028,2.0293,2.0297,2.0304,2.0296,2.0284,2.0292,2.0244,2.0295,2.0295,2.0295,2.0295,2.0294,1.9767,1.9793,1.9834,1.9875,1.9906,1.9939,1.9968,1.9997,2.0035,2.0084,2.01,2.0146,2.0188,2.0252,2.0278,2.0316,2.0315,2.0325,2.0328,2.033,2.033,2.0279,2.0324,2.0324,2.0324,2.0324,2.0324,0,1.9797,1.9825,1.9863,1.9913,1.9946,1.9956,1.9997,2.0024,2.0064,2.0102,2.0138,2.019,2.0234,2.0272,2.0318,2.034,2.0348,2.0351,2.035,2.0356,2.0327,2.0317,2.0344,2.0344,2.0344,2.0344,2.0344,2.0344,1.9817,1.9862,1.9882,1.9943,1.9971,2.0016,2.0039,2.0071,2.0101,2.0158,2.0194,2.0219,2.0258,2.0306,2.0347,2.0358,2.0374,2.0376,2.0387,2.036,2.0357,2.0355,2.0345,2.0379,2.0379,2.0413,2.0413,2.0414]}]]